Location: Newark
(52.2090°N, 4.1550°W)
Time: 15:28:58
(UTC+00:00)

Explorer 7 - Pass Details

Date: 16 September 2019
Orbit: 485 x 680 km, 50.3° (Epoch: 14 October)

Event Time Altitude Azimuth Distance (km) Brightness Sun altitude
Exits shadow 03:13:31 68° 207° (SSW) 725 7.1 -23.0°
Maximum altitude 03:13:50 71° 176° (S) 714 7.1 -23.0°
Drops below altitude 10° 03:18:45 10° 93° (E) 2,121 10.4 -22.4°
Sets 03:21:08 0° 92° (E) 3,035 11.4 -22.1°
